Location: Borotín
(49.5055°N, 14.6142°E)
Time: 11:41:23
(UTC+00:00)

USA 307 - Pass Details

Date: 27 May 2022
Orbit: 552 x 554 km, 54.0° (Epoch: 17 June)

Event Time Altitude Azimuth Distance (km) Brightness Sun altitude
Exits shadow 00:08:03 39° 212° (SSW) 843 3.2 -17.6°
Maximum altitude 00:09:24 63° 148° (SSE) 622 2.8 -17.5°
Drops below altitude 10° 00:13:33 10° 67° (ENE) 1,844 6.1 -17.3°
Sets 00:15:48 0° 64° (ENE) 2,743 7.1 -17.2°
